Location: �clusier
(49.9361°N, 2.7869°E)
Time: 22:14:53
(UTC+00:00)

Tsikada Rocket - Pass Details

Date: 16 June 2021
Orbit: 959 x 1008 km, 82.9° (Epoch: 02 August)

Event Time Altitude Azimuth Distance (km) Brightness Sun altitude
Exits shadow 23:28:39 23° 156° (SSE) 1,912 5.0 -16.5°
Maximum altitude 23:32:18 52° 92° (E) 1,193 4.4 -16.6°
Drops below altitude 10° 23:38:15 10° 18° (NNE) 2,707 7.4 -16.6°
Sets 23:40:48 0° 13° (NNE) 3,655 8.5 -16.7°
